Weather Roundup
Issued by NWS Corpus Christi, TX

Home | Current Version | Previous Version | Text Only | Print | Product List | Glossary On
Versions: 1 2 3 4 5 6 7 8 9 10 11 12 13 14 15 16 17 18 19 20 21 22 23 24 25 26 27 28 29 30 31 32 33 34 35 36 37 38 39 40 41 42 43 44 45 46 47 48 49 50
000
ASUS44 KCRP 200410
HRRCRP

SOUTH TEXAS REGIONAL WEATHER ROUNDUP
NATIONAL WEATHER SERVICE CORPUS CHRISTI TX
1100 PM CDT THU APR 19 2018


TXZ229>244-200500-
...CORPUS CHRISTI AREA OBSERVATIONS...

CITY           SKY/WX    TMP DP  RH WIND       PRES   REMARKS
CORPUS CHRISTI CLOUDY    65  54  67 E5        30.19R
NAS CORPUS CHR CLOUDY    70  58  65 E7        30.18S
ROCKPORT       CLEAR     67  57  70 E9        30.19S
KINGSVILLE ARP FAIR      66  52  60 CALM      30.20R
KINGSVILLE NAS CLOUDY    64  52  64 SE6       30.19S
ALICE          CLOUDY    65  48  54 SE6       30.19R
$$

...VICTORIA AREA OBSERVATIONS...

CITY           SKY/WX    TMP DP  RH WIND       PRES   REMARKS
PORT LAVACA    CLEAR     62  54  73 CALM      30.21S
VICTORIA       CLOUDY    58  51  78 E3        30.21S
BEEVILLE       FAIR      60  49  68 E5        30.19S
PLEASANTON     PTCLDY    62  42  46 NE7       30.21R
SAN ANTONIO    CLOUDY    64  38  38 E6        30.23R
$$

...LAREDO AREA OBSERVATIONS...

CITY           SKY/WX    TMP DP  RH WIND       PRES   REMARKS
LAREDO         CLOUDY    72  50  45 SE18      30.18R
COTULLA        PTCLDY    68  40  35 E9        30.19R
DEL RIO        CLOUDY    69  42  37 SE7       30.15S
MCALLEN        PTCLDY    71  62  73 E7        30.18R
HEBBRONVILLE   PTCLDY    65  45  47 SE9       30.20R
$$

...OTHER TEXAS OBSERVATIONS...

CITY           SKY/WX    TMP DP  RH WIND       PRES   REMARKS
BROWNSVILLE    FAIR      69  65  86 NE5       30.17S
HOUSTON        FAIR      62  46  55 NE6       30.22F
COL. STATION   PTCLDY    62  42  47 NE7       30.24S
AUSTIN         CLOUDY    60  41  49 NE5       30.22F
WACO           CLEAR     55  39  54 E6        30.26S
FORT WORTH     CLEAR     56  36  47 E7        30.26R
WICHITA FALLS  CLEAR     50  34  54 E9        30.27R
LUBBOCK        PTCLDY    57  26  30 SE17      30.21R
EL PASO        PTCLDY    70  35  27 E10       29.95F
$$

...MARINE OBSERVATIONS...

STATION/POSITION TIME  SKY/WX   TEMP    WIND        PRES    VSBY  WAVE   SWELL
                                AIR SEA DIR/SP/G                  HT/PER HT/PER
                 (UTC)          (F)     (DEG/KT/KT) (MB)    (MI)  (FT/S) (FT/S)
PORT ARANSAS     0400            71 71   90/  9/ 10 1022.0F
BUOY 90 E PORT A 0350            70 73   50/ 12/ 16 1022.3R         4/ 6   2/ 7
BUOY 200 E PT IS 0350            73 75   40/ 10/ 12 1021.3S         3/ 7   3/ 7
BUOY 15 E GALVES 0250            70 71   10/ 14/ 17 1022.7          2/ 7   2/ 7
$$



USA.gov is the U.S. government's official web portal to all federal, state and local government web resources and services.